Location: Qazi Observatory
(41.6337°N, 88.1517°W)
Time: 12:11:52
(UTC-06:00)

Amateur Radio Satellites - All Passes

Search period start: 20 January 2017 11:41
Search period end: 21 January 2017 11:41
Location: Qazi Observatory, 41.6337°N, 88.1517°W

Satellite Date Start Highest point End Downlink Frequencies (MHz)
Time Altitude Azimuth
CUBEBUG 1 20 Jan 11:47:30 11:51:52 83° 105° (ESE) 11:56:10 437.445
DUCHIFAT 1 20 Jan 11:49:46 11:52:58 21° 266° (W) 11:56:11 145.980
Gurwin Techsat 1B 20 Jan 11:54:54 11:59:04 24° 64° (ENE) 12:03:15 435.225
NANOSAT C BR1 20 Jan 11:55:46 11:58:32 17° 267° (W) 12:01:19 145.865
AISAT 20 Jan 12:03:35 12:08:00 79° 103° (ESE) 12:12:21 437.250
Cosmos 2491 20 Jan 12:05:11 12:13:14 38° 71° (ENE) 12:21:14 435.465 / 435.565
AO-7 20 Jan 12:10:52 12:14:54 15° 44° (NE) 12:18:56 29.400- 29.500
50 SAT 20 Jan 12:15:25 12:19:00 86° 102° (ESE) 12:22:32 437.505
YUBILEINY 20 Jan 12:15:42 12:20:32 16° 75° (ENE) 12:25:22 435.215
BUGSAT 1 20 Jan 12:24:38 12:27:54 23° 265° (W) 12:31:09 437.445
ESTCUBE 1 20 Jan 12:26:00 12:29:42 25° 293° (WNW) 12:33:20 437.505/2401.250
CUSAT 1 20 Jan 12:36:57 12:43:32 27° 65° (ENE) 12:49:49 437.405
VELOX 1 20 Jan 12:37:09 12:41:23 47° 288° (WNW) 12:45:35 145.980
TISAT 1 20 Jan 12:59:05 13:02:48 31° 97° (E) 13:06:31 437.305
SPROUT 20 Jan 13:06:45 13:10:26 29° 291° (WNW) 13:14:07 437.525
UKube-1 20 Jan 13:08:37 13:12:52 61° 287° (WNW) 13:17:06 .
DX 1 20 Jan 13:09:31 13:13:39 44° 289° (WNW) 13:17:45 434.975-435.025
Oscar 19 20 Jan 13:20:21 13:24:59 32° 264° (W) 13:29:38 437.125/150
DANDE 20 Jan 13:25:39 13:31:47 25° 66° (ENE) 13:38:19 436.750
AO-85 20 Jan 13:29:04 13:33:46 60° 119° (ESE) 13:38:06 145.980
Cosmos 2504 20 Jan 13:29:18 13:36:11 28° 83° (E) 13:42:45 435.465 / 435.565
AIST 1 20 Jan 13:30:57 13:35:15 60° 95° (E) 13:39:33
Gurwin Techsat 1B 20 Jan 13:33:38 13:38:42 46° 261° (W) 13:43:49 435.225
BEESAT 20 Jan 13:38:13 13:41:23 17° 92° (E) 13:44:33 436.000
SWISSCUBE 20 Jan 13:39:33 13:43:06 20° 93° (E) 13:46:38 437.505
AISAT 20 Jan 13:42:43 13:43:48 11° 300° (WNW) 13:44:52 437.250
AO-7 20 Jan 13:57:49 14:05:57 60° 66° (ENE) 14:14:09 29.400- 29.500
Cosmos 2491 20 Jan 14:01:56 14:10:13 49° 271° (W) 14:18:32 435.465 / 435.565
ITAMSAT 1 20 Jan 14:02:24 14:07:32 71° 73° (ENE) 14:12:43 435.822/435.867
YUBILEINY 20 Jan 14:07:03 14:15:52 83° 95° (E) 14:24:45 435.215
CUSAT 1 20 Jan 14:18:11 14:26:08 70° 265° (W) 14:33:28 437.405
TISAT 1 20 Jan 14:35:02 14:38:16 22° 293° (WNW) 14:41:30 437.305
SO-50 20 Jan 14:38:27 14:40:19 12° 35° (NE) 14:42:11 436.795
ITUPSAT 1 20 Jan 14:40:00 14:44:50 72° 103° (ESE) 14:49:37 437.325
DANDE 20 Jan 15:07:19 15:15:08 79° 263° (W) 15:23:30 436.750
MOZHAYETS 4 20 Jan 15:09:51 15:14:20 47° 99° (E) 15:18:49
AO-85 20 Jan 15:11:12 15:14:28 19° 316° (NW) 15:17:35 145.980
AIST 1 20 Jan 15:11:26 15:13:15 12° 292° (WNW) 15:15:05
BEESAT 20 Jan 15:14:48 15:19:26 50° 288° (WNW) 15:24:03 436.000
BRITE-PL 20 Jan 15:15:42 15:20:46 35° 69° (ENE) 15:25:48 437.365/2234.400
SWISSCUBE 20 Jan 15:16:31 15:21:04 43° 290° (WNW) 15:25:35 437.505
Cosmos 2504 20 Jan 15:20:22 15:28:59 64° 281° (W) 15:37:06 435.465 / 435.565
GOMX 1 20 Jan 15:21:35 15:24:50 17° 63° (ENE) 15:27:59 467.674
O/OREOS (USA 219) 20 Jan 15:27:14 15:31:32 43° 62° (ENE) 15:35:51 437.305
BEESAT 2 20 Jan 15:30:13 15:32:05 13° 109° (ESE) 15:33:57 435.950
AUBIESAT-1 20 Jan 15:38:04 15:40:26 18° 100° (E) 15:42:45 437.475
ITAMSAT 1 20 Jan 15:44:57 15:47:31 14° 270° (W) 15:50:06 435.822/435.867
KKS-1 20 Jan 15:49:20 15:53:27 37° 98° (E) 15:57:32 437.445
AO-7 20 Jan 15:51:57 15:59:07 31° 264° (W) 16:06:20 29.400- 29.500
CUBESAT XI-V 20 Jan 15:56:19 16:00:00 23° 93° (E) 16:03:39 437.345
HORYU 2 20 Jan 15:57:18 16:01:17 35° 70° (ENE) 16:05:18 437.375
Cubesat XI-IV 20 Jan 15:58:28 16:01:41 16° 60° (ENE) 16:04:54 437.490
DOVE 4 20 Jan 16:00:56 16:03:32 15° 64° (ENE) 16:06:05 437.250
CUSAT 1 20 Jan 16:03:12 16:06:33 13° 283° (WNW) 16:09:50 437.405
NOAA 18 20 Jan 16:05:19 16:07:00 11° 56° (NE) 16:08:41 137.9125
NOAA 15 20 Jan 16:06:24 16:10:13 21° 62° (ENE) 16:14:03 137.62
YUBILEINY 20 Jan 16:07:21 16:13:47 22° 297° (WNW) 16:20:16 435.215
SO-50 20 Jan 16:17:07 16:21:38 71° 55° (NE) 16:26:05 436.795
ITUPSAT 1 20 Jan 16:19:39 16:22:03 14° 299° (WNW) 16:24:27 437.325
BEESAT 3 20 Jan 16:20:26 16:24:18 71° 303° (WNW) 16:28:16 437.485
M-CUBED/EXP-1 PRIME 20 Jan 16:35:08 16:38:26 53° 291° (WNW) 16:41:37 437.505
LilacSat-2 20 Jan 16:39:56 16:43:15 30° 71° (ENE) 16:46:37 437.200
STARS 20 Jan 16:42:05 16:46:26 63° 102° (ESE) 16:50:45 437.465
MOZHAYETS 4 20 Jan 16:47:56 16:51:08 19° 295° (WNW) 16:54:21
DANDE 20 Jan 16:52:19 16:56:53 17° 279° (W) 17:01:36 436.750
CUTE-I 20 Jan 16:52:50 16:57:56 49° 70° (ENE) 17:03:02 437.470
BRITE-PL 20 Jan 16:53:58 16:59:08 35° 264° (W) 17:04:16 437.365/2234.400
GOMX 1 20 Jan 16:56:58 17:02:22 70° 259° (WSW) 17:07:34 467.674
BEESAT 2 20 Jan 17:05:31 17:09:22 55° 306° (NW) 17:13:19 435.950
O/OREOS (USA 219) 20 Jan 17:07:31 17:10:36 18° 259° (W) 17:13:40 437.305
AUBIESAT-1 20 Jan 17:12:09 17:14:52 23° 296° (WNW) 17:17:33 437.475
HO-68 20 Jan 17:19:51 17:25:36 27° 59° (ENE) 17:31:21 435.675
Cosmos 2504 20 Jan 17:20:49 17:24:01 12° 302° (WNW) 17:27:10 435.465 / 435.565
KKS-1 20 Jan 17:26:26 17:29:46 21° 294° (WNW) 17:33:06 437.445
CINEMA 3 20 Jan 17:27:38 17:31:03 23° 68° (ENE) 17:34:24 145.822/145.860
CUBESAT XI-V 20 Jan 17:33:09 17:37:28 37° 290° (WNW) 17:41:44 437.345
HORYU 2 20 Jan 17:34:33 17:37:55 21° 266° (W) 17:41:18 437.375
DOVE 4 20 Jan 17:35:44 17:40:45 68° 259° (WSW) 17:45:29 437.250
Cubesat XI-IV 20 Jan 17:35:52 17:41:09 70° 258° (WSW) 17:46:29 437.490
CANX-2 20 Jan 17:38:17 17:41:17 19° 66° (ENE) 17:44:17 2200.000
NOAA 18 20 Jan 17:41:14 17:46:44 76° 73° (ENE) 17:52:14 137.9125
Cosmos 2499 20 Jan 17:44:21 17:49:02 17° 79° (E) 17:53:34 435.465 / 435.565
NOAA 15 20 Jan 17:44:24 17:49:34 55° 259° (W) 17:54:48 137.62
SEEDS 20 Jan 17:49:44 17:52:04 15° 64° (ENE) 17:54:25 437.485
COMPASS 1 20 Jan 17:56:02 17:57:14 11° 62° (ENE) 17:58:27 437.405
SO-50 20 Jan 17:59:38 18:01:29 12° 252° (WSW) 18:03:19 436.795
BEESAT 3 20 Jan 18:02:29 18:02:40 10° 323° (NW) 18:02:51 437.485
AAUSAT CUBESAT 2 20 Jan 18:07:03 18:08:19 11° 62° (ENE) 18:09:35 437.432
LilacSat-2 20 Jan 18:15:01 18:17:36 18° 267° (W) 18:20:14 437.200
STARS 20 Jan 18:20:12 18:22:15 13° 298° (WNW) 18:24:17 437.465
CUBEBUG 2 20 Jan 18:21:30 18:24:28 19° 67° (ENE) 18:27:27 437.445
CUTE-I 20 Jan 18:34:16 18:38:13 21° 267° (W) 18:42:12 437.470
CUTE 1.7 + AOD 2 20 Jan 18:43:13 18:47:27 83° 77° (ENE) 18:51:44 437.475
FUNcube-1 20 Jan 18:45:49 18:47:32 12° 63° (ENE) 18:49:16 145.935
UWE-3 20 Jan 18:49:01 18:52:21 24° 68° (ENE) 18:55:41 435.000/436.395/437.385
GONETS M04 20 Jan 18:55:10 19:03:08 43° 87° (E) 19:11:11
CINEMA 3 20 Jan 19:04:04 19:08:03 32° 263° (W) 19:11:55 145.822/145.860
AIST 2 20 Jan 19:04:56 19:08:56 54° 118° (ESE) 19:13:01 435.215
HO-68 20 Jan 19:05:39 19:12:46 64° 257° (WSW) 19:19:56 435.675
ZACube-1 20 Jan 19:07:17 19:10:33 23° 68° (ENE) 19:13:50 437.345
CANX-2 20 Jan 19:12:52 19:16:50 39° 262° (W) 19:20:52 2200.000
STRAND 1 20 Jan 19:22:46 19:27:56 84° 103° (ESE) 19:33:06 437.568
SEEDS 20 Jan 19:23:13 19:27:19 52° 261° (W) 19:31:29 437.485
NOAA 18 20 Jan 19:25:10 19:27:57 14° 270° (W) 19:30:46 137.9125
COMPASS 1 20 Jan 19:28:01 19:32:11 70° 259° (WSW) 19:36:24 437.405
Cosmos 2499 20 Jan 19:32:39 19:41:08 88° 97° (E) 19:49:01 435.465 / 435.565
AAUSAT CUBESAT 2 20 Jan 19:39:03 19:43:12 69° 259° (W) 19:47:24 437.432
Oscar 11 20 Jan 19:42:09 19:46:17 48° 73° (ENE) 19:50:28 145.826/435.025
CUBEBUG 2 20 Jan 19:57:03 20:00:52 34° 263° (W) 20:04:41 437.445
FUNcube-1 20 Jan 20:19:12 20:23:16 59° 259° (W) 20:27:23 145.935
UWE-3 20 Jan 20:25:10 20:28:42 27° 264° (W) 20:32:16 435.000/436.395/437.385
ZACube-1 20 Jan 20:43:06 20:46:42 29° 264° (W) 20:50:20 437.345
ISS 20 Jan 20:43:42 20:45:11 13° 130° (SE) 20:46:40 145.825
AIST 2 20 Jan 20:44:48 20:47:44 18° 317° (NW) 20:50:42 435.215
HUMSAT D 20 Jan 20:50:31 20:54:28 49° 73° (ENE) 20:58:29 437.325/437.525
GONETS M04 20 Jan 20:51:47 20:59:54 43° 287° (WNW) 21:08:09
DELFI C3 20 Jan 20:53:27 20:57:27 79° 256° (WSW) 21:01:29 145.870
PRISM 20 Jan 21:02:36 21:06:38 50° 100° (E) 21:10:35 437.425
STRAND 1 20 Jan 21:04:01 21:06:23 13° 301° (WNW) 21:08:47 437.568
RS-15 20 Jan 21:07:05 21:12:59 15° 94° (E) 21:18:59 29.354- 29.394
Oscar 11 20 Jan 21:20:12 21:22:41 15° 269° (W) 21:25:11 145.826/435.025
Cosmos 2499 20 Jan 21:29:42 21:35:11 19° 295° (WNW) 21:40:28 435.465 / 435.565
UNISAT 6 20 Jan 21:32:15 21:36:20 34° 98° (E) 21:40:27 437.425
TIGRISAT 20 Jan 21:45:21 21:49:36 44° 99° (E) 21:53:56 435.000
BY70-1 20 Jan 21:45:31 21:48:25 46° 73° (ENE) 21:51:33 436.1900
ESTCUBE 1 20 Jan 21:48:33 21:52:32 31° 69° (ENE) 21:56:32 437.505/2401.250
VELOX 1 20 Jan 21:59:46 22:02:25 16° 63° (ENE) 22:05:04 145.980
AO-85 20 Jan 22:00:29 22:04:18 47° 53° (NE) 22:08:04 145.980
ANTELSAT 20 Jan 22:00:34 22:05:00 70° 101° (E) 22:09:32 437.575/2403.000
ISS 20 Jan 22:18:00 22:21:15 74° 324° (NW) 22:24:31 145.825
SPROUT 20 Jan 22:25:02 22:28:06 20° 66° (ENE) 22:31:10 437.525
JAS-2 20 Jan 22:25:53 22:32:53 48° 99° (E) 22:40:20 435.910
HUMSAT D 20 Jan 22:28:25 22:30:23 13° 269° (W) 22:32:21 437.325/437.525
UKube-1 20 Jan 22:30:13 22:31:40 11° 61° (ENE) 22:33:06 .
DX 1 20 Jan 22:30:31 22:33:13 16° 63° (ENE) 22:35:53 434.975-435.025
PRISM 20 Jan 22:39:15 22:41:28 14° 297° (WNW) 22:43:41 437.425
CUBEBUG 1 20 Jan 22:43:07 22:47:31 69° 74° (ENE) 22:51:54 437.445
50 SAT 20 Jan 22:50:09 22:53:23 33° 71° (ENE) 22:56:38 437.505
QB50P1 20 Jan 22:55:28 22:58:59 25° 95° (E) 23:02:29 145.935-145.965
POLYITAN 1 20 Jan 22:59:38 23:03:19 28° 96° (E) 23:06:59 437.675
AISAT 20 Jan 23:00:36 23:05:02 71° 74° (ENE) 23:09:27 437.250
QB50P2 20 Jan 23:00:49 23:04:36 31° 97° (E) 23:08:23 145.880/145.840
PCSat 20 Jan 23:08:01 23:11:20 17° 104° (ESE) 23:14:40 145.827
UNISAT 6 20 Jan 23:09:21 23:12:51 23° 293° (WNW) 23:16:23 437.425
RS-15 20 Jan 23:11:17 23:22:58 70° 116° (ESE) 23:35:09 29.354- 29.394
POPSAT HIP 1 20 Jan 23:21:59 23:26:06 49° 100° (E) 23:30:12 437.405
TIGRISAT 20 Jan 23:22:56 23:25:59 18° 294° (WNW) 23:29:03 435.000
ESTCUBE 1 20 Jan 23:25:34 23:29:19 26° 265° (W) 23:33:07 437.505/2401.250
DUCHIFAT 1 20 Jan 23:32:13 23:36:21 55° 100° (E) 23:40:29 145.980
VELOX 1 20 Jan 23:34:05 23:38:26 53° 260° (W) 23:42:48 145.980
NANOSAT C BR1 20 Jan 23:37:57 23:42:10 72° 102° (ESE) 23:46:23 145.865
AIST 1 20 Jan 23:38:57 23:41:27 15° 70° (ENE) 23:43:56
ANTELSAT 20 Jan 23:39:17 23:41:10 13° 298° (WNW) 23:43:03 437.575/2403.000
AO-85 20 Jan 23:42:11 23:44:15 14° 250° (WSW) 23:46:20 145.980
BEESAT 2 20 Jan 23:46:51 23:48:36 12° 39° (NE) 23:50:20 435.950
TISAT 1 20 Jan 23:50:59 23:54:22 24° 68° (ENE) 23:57:45 437.305
ISS 20 Jan 23:55:46 23:58:10 19° 345° (NNW) 00:00:34 145.825
SPROUT 20 Jan 23:59:49 00:03:46 37° 262° (W) 00:07:44 437.525
UKube-1 21 Jan 00:02:46 00:07:05 73° 257° (WSW) 00:11:26 .
DX 1 21 Jan 00:04:44 00:08:59 50° 260° (W) 00:13:15 434.975-435.025
BUGSAT 1 21 Jan 00:05:03 00:08:56 44° 99° (E) 00:12:49 437.445
JAS-2 21 Jan 00:11:16 00:17:41 37° 294° (WNW) 00:24:33 435.910
ITUPSAT 1 21 Jan 00:13:49 00:14:26 10° 58° (ENE) 00:15:03 437.325
YUBILEINY 21 Jan 00:17:21 00:25:38 42° 73° (ENE) 00:33:47 435.215
CUBEBUG 1 21 Jan 00:23:09 00:24:13 11° 271° (W) 00:25:18 437.445
50 SAT 21 Jan 00:24:38 00:26:41 15° 267° (W) 00:28:46 437.505
QB50P1 21 Jan 00:31:07 00:34:42 27° 291° (WNW) 00:38:15 145.935-145.965
POLYITAN 1 21 Jan 00:35:33 00:38:59 25° 292° (WNW) 00:42:25 437.675
QB50P2 21 Jan 00:36:55 00:40:14 22° 293° (WNW) 00:43:32 145.880/145.840
BEESAT 3 21 Jan 00:37:03 00:41:03 68° 56° (ENE) 00:45:01 437.485
AISAT 21 Jan 00:40:54 00:41:57 11° 270° (W) 00:42:59 437.250
BEESAT 21 Jan 00:44:46 00:48:20 22° 65° (ENE) 00:51:55 436.000
SWISSCUBE 21 Jan 00:46:10 00:49:59 25° 66° (ENE) 00:53:49 437.505
PCSat 21 Jan 00:48:44 00:54:07 68° 301° (WNW) 00:59:33 145.827
POPSAT HIP 1 21 Jan 00:59:01 01:01:28 15° 296° (WNW) 01:03:54 437.405
Cosmos 2491 21 Jan 01:06:45 01:14:44 42° 87° (E) 01:22:44 435.465 / 435.565
DUCHIFAT 1 21 Jan 01:09:29 01:11:34 14° 297° (WNW) 01:13:39 145.980
Cosmos 2504 21 Jan 01:13:23 01:20:28 46° 75° (ENE) 01:27:17 435.465 / 435.565
AIST 1 21 Jan 01:15:14 01:19:18 44° 267° (W) 01:23:20
NANOSAT C BR1 21 Jan 01:16:13 01:17:18 11° 298° (WNW) 01:18:23 145.865
BEESAT 2 21 Jan 01:22:54 01:26:59 90° 56° (NE) 01:31:01 435.950
RS-15 21 Jan 01:25:06 01:36:22 43° 321° (NW) 01:48:00 29.354- 29.394
TISAT 1 21 Jan 01:26:18 01:29:54 28° 264° (W) 01:33:30 437.305
PHONESAT 2.4 21 Jan 01:29:07 01:30:58 21° 159° (SSE) 01:32:48 2401.200-2431.200
Oscar 19 21 Jan 01:30:55 01:36:08 88° 105° (ESE) 01:41:17 437.125/150
ISS 21 Jan 01:33:40 01:35:35 14° 5° (N) 01:37:29 145.825
CUSAT 1 21 Jan 01:39:56 01:43:22 17° 79° (E) 01:47:18 437.405
BUGSAT 1 21 Jan 01:41:36 01:43:56 15° 295° (WNW) 01:46:16 437.445
ITUPSAT 1 21 Jan 01:46:42 01:51:27 85° 78° (ENE) 01:56:16 437.325
M-CUBED/EXP-1 PRIME 21 Jan 01:47:42 01:50:31 17° 61° (ENE) 01:53:13 437.505
Gurwin Techsat 1B 21 Jan 01:49:15 01:54:35 70° 102° (ESE) 01:59:52 435.225
AO-7 21 Jan 02:01:02 02:06:10 17° 90° (E) 02:11:16 29.400- 29.500
MOZHAYETS 4 21 Jan 02:11:42 02:16:02 45° 72° (ENE) 02:20:26
YUBILEINY 21 Jan 02:14:15 02:22:24 44° 273° (W) 02:30:29 435.215
ITAMSAT 1 21 Jan 02:15:35 02:19:48 24° 94° (E) 02:24:01 435.822/435.867
BEESAT 3 21 Jan 02:17:10 02:18:05 11° 252° (WSW) 02:19:00 437.485
BEESAT 21 Jan 02:21:20 02:25:49 42° 261° (W) 02:30:22 436.000
AUBIESAT-1 21 Jan 02:22:49 02:26:33 31° 66° (ENE) 02:30:06 437.475
SWISSCUBE 21 Jan 02:23:12 02:27:34 36° 262° (W) 02:31:59 437.505
PCSat 21 Jan 02:35:54 02:38:34 14° 322° (NW) 02:41:14 145.827
DANDE 21 Jan 02:38:23 02:39:15 11° 77° (ENE) 02:40:11 436.750
KKS-1 21 Jan 02:47:25 02:51:27 35° 70° (ENE) 02:55:31 437.445
CUBESAT XI-V 21 Jan 02:59:47 03:03:29 23° 66° (ENE) 03:07:12 437.345
PHONESAT 2.4 21 Jan 03:02:30 03:04:44 61° 175° (S) 03:06:59 2401.200-2431.200
Cosmos 2491 21 Jan 03:03:23 03:11:30 43° 287° (WNW) 03:19:43 435.465 / 435.565
Cosmos 2504 21 Jan 03:07:17 03:13:30 31° 275° (W) 03:19:35 435.465 / 435.565
ISS 21 Jan 03:09:52 03:12:49 31° 25° (NNE) 03:15:45 145.825
Oscar 19 21 Jan 03:12:30 03:14:41 13° 302° (WNW) 03:16:51 437.125/150
CUSAT 1 21 Jan 03:19:04 03:24:11 66° 284° (WNW) 03:30:53 437.405
M-CUBED/EXP-1 PRIME 21 Jan 03:20:27 03:24:42 47° 255° (WSW) 03:28:40 437.505
AIST 2 21 Jan 03:25:59 03:29:59 38° 51° (NE) 03:33:57 435.215
Gurwin Techsat 1B 21 Jan 03:30:41 03:33:56 17° 300° (WNW) 03:37:10 435.225
STARS 21 Jan 03:38:33 03:42:50 56° 73° (ENE) 03:47:07 437.465
RS-15 21 Jan 03:44:05 03:53:27 24° 354° (N) 04:02:52 29.354- 29.394
MOZHAYETS 4 21 Jan 03:50:20 03:53:26 18° 268° (W) 03:56:32
AO-7 21 Jan 03:51:34 04:00:00 87° 109° (ESE) 04:08:21 29.400- 29.500
ITAMSAT 1 21 Jan 03:54:31 03:59:24 42° 291° (WNW) 04:04:16 435.822/435.867
AUBIESAT-1 21 Jan 03:57:31 04:00:56 23° 259° (W) 04:04:12 437.475
DANDE 21 Jan 04:16:54 04:20:43 60° 284° (WNW) 04:25:54 436.750
KKS-1 21 Jan 04:24:40 04:28:05 22° 266° (W) 04:31:32 437.445
CUBESAT XI-V 21 Jan 04:36:17 04:40:38 37° 263° (W) 04:45:01 437.345
PHONESAT 2.4 21 Jan 04:36:27 04:38:37 44° 192° (SSW) 04:40:48 2401.200-2431.200
ISS 21 Jan 04:46:18 04:49:20 36° 222° (SW) 04:52:20 145.825
BRITE-PL 21 Jan 04:58:49 05:03:45 87° 107° (ESE) 05:08:14 437.365/2234.400
GOMX 1 21 Jan 04:59:33 05:03:29 31° 96° (E) 05:07:15 467.674
STRAND 1 21 Jan 05:02:19 05:05:19 16° 61° (ENE) 05:08:18 437.568
AIST 2 21 Jan 05:04:58 05:08:14 22° 248° (WSW) 05:11:28 435.215
GONETS M04 21 Jan 05:05:21 05:11:46 22° 63° (ENE) 05:18:09
CUSAT 1 21 Jan 05:06:26 05:07:55 11° 308° (NW) 05:09:28 437.405
CUTE-I 21 Jan 05:10:28 05:14:12 19° 92° (E) 05:17:56 437.470
STARS 21 Jan 05:17:27 05:19:31 13° 269° (W) 05:21:36 437.465
HORYU 2 21 Jan 05:23:43 05:28:10 68° 102° (ESE) 05:32:36 437.375
Cosmos 2499 21 Jan 05:24:37 05:30:38 28° 69° (ENE) 05:36:34 435.465 / 435.565
DOVE 4 21 Jan 05:34:58 05:38:35 28° 96° (E) 05:42:09 437.250
O/OREOS (USA 219) 21 Jan 05:39:36 05:43:54 48° 107° (ESE) 05:48:12 437.305
AO-7 21 Jan 05:45:39 05:51:46 23° 308° (NW) 05:57:52 29.400- 29.500
LilacSat-2 21 Jan 05:46:34 05:50:18 45° 99° (E) 05:54:01 437.200
Cubesat XI-IV 21 Jan 05:52:53 05:58:01 46° 99° (E) 06:03:08 437.490
NOAA 15 21 Jan 05:59:10 06:04:24 55° 100° (E) 06:09:35 137.62
RS-15 21 Jan 06:00:26 06:11:19 33° 29° (NNE) 06:21:57 29.354- 29.394
NOAA 18 21 Jan 06:03:29 06:08:16 31° 96° (E) 06:13:03 137.9125
PHONESAT 2.4 21 Jan 06:11:17 06:12:16 12° 207° (SSW) 06:13:15 2401.200-2431.200
CUTE 1.7 + AOD 2 21 Jan 06:29:19 06:31:39 14° 91° (E) 06:33:59 437.475
SO-50 21 Jan 06:32:11 06:35:48 22° 112° (ESE) 06:39:23 436.795
HO-68 21 Jan 06:33:52 06:39:36 25° 93° (E) 06:45:17 435.675
GOMX 1 21 Jan 06:37:59 06:41:25 22° 294° (WNW) 06:44:42 467.674
STRAND 1 21 Jan 06:38:51 06:43:54 68° 258° (WSW) 06:49:01 437.568
BRITE-PL 21 Jan 06:40:02 06:41:20 11° 302° (WNW) 06:42:36 437.365/2234.400
CUTE-I 21 Jan 06:49:22 06:54:34 55° 289° (WNW) 06:59:46 437.470
CANX-2 21 Jan 06:57:27 07:01:23 34° 97° (E) 07:05:17 2200.000
CINEMA 3 21 Jan 06:57:31 07:01:38 52° 100° (E) 07:05:50 145.822/145.860
GONETS M04 21 Jan 07:00:50 07:09:43 84° 263° (W) 07:18:34
HORYU 2 21 Jan 07:02:11 07:04:08 13° 299° (WNW) 07:06:06 437.375
SEEDS 21 Jan 07:07:08 07:10:39 25° 95° (E) 07:14:09 437.485
COMPASS 1 21 Jan 07:11:25 07:14:21 18° 93° (E) 07:17:15 437.405
DOVE 4 21 Jan 07:12:52 07:16:11 23° 292° (WNW) 07:19:27 437.250
Cosmos 2499 21 Jan 07:17:15 07:24:04 50° 270° (W) 07:30:48 435.465 / 435.565
O/OREOS (USA 219) 21 Jan 07:20:28 07:23:34 18° 305° (NW) 07:26:41 437.305
AAUSAT CUBESAT 2 21 Jan 07:21:53 07:24:47 18° 93° (E) 07:27:39 437.432
LilacSat-2 21 Jan 07:22:12 07:24:12 14° 295° (WNW) 07:26:12 437.200
Cubesat XI-IV 21 Jan 07:33:35 07:37:47 24° 296° (WNW) 07:41:59 437.490
NOAA 15 21 Jan 07:39:56 07:43:45 20° 298° (WNW) 07:47:33 137.62
NOAA 18 21 Jan 07:44:00 07:48:56 36° 293° (WNW) 07:53:50 137.9125
CUBEBUG 2 21 Jan 07:46:41 07:50:50 43° 98° (E) 07:55:06 437.445
PRISM 21 Jan 07:51:50 07:55:41 37° 71° (ENE) 07:59:32 437.425
PCSat 21 Jan 07:54:03 07:57:45 18° 42° (NE) 08:01:26 145.827
CUTE 1.7 + AOD 2 21 Jan 08:03:36 08:07:46 50° 287° (WNW) 08:11:55 437.475
FUNcube-1 21 Jan 08:06:53 08:10:33 25° 95° (E) 08:14:15 145.935
SO-50 21 Jan 08:11:27 08:15:59 45° 308° (NW) 08:20:28 436.795
UWE-3 21 Jan 08:13:13 08:17:31 53° 100° (E) 08:21:55 435.000/436.395/437.385
RS-15 21 Jan 08:13:26 08:25:54 85° 57° (ENE) 08:37:51 29.354- 29.394
HO-68 21 Jan 08:20:41 08:27:45 62° 291° (WNW) 08:34:46 435.675
ZACube-1 21 Jan 08:30:02 08:34:19 49° 99° (E) 08:38:39 437.345
UNISAT 6 21 Jan 08:31:32 08:35:14 30° 69° (ENE) 08:38:57 437.425
DELFI C3 21 Jan 08:32:10 08:34:02 13° 91° (E) 08:35:52 145.870
CANX-2 21 Jan 08:33:44 08:37:01 22° 293° (WNW) 08:40:17 2200.000
CINEMA 3 21 Jan 08:36:10 08:38:23 14° 295° (WNW) 08:40:36 145.822/145.860
JAS-2 21 Jan 08:41:20 08:44:51 18° 58° (ENE) 08:48:34 435.910
SEEDS 21 Jan 08:42:39 08:46:18 28° 291° (WNW) 08:49:55 437.485
TIGRISAT 21 Jan 08:44:20 08:48:15 37° 71° (ENE) 08:52:11 435.000
COMPASS 1 21 Jan 08:46:07 08:50:01 37° 289° (WNW) 08:53:53 437.405
AAUSAT CUBESAT 2 21 Jan 08:56:30 09:00:22 37° 289° (WNW) 09:04:12 437.432
ANTELSAT 21 Jan 08:59:30 09:03:41 60° 74° (ENE) 09:07:53 437.575/2403.000
GONETS M04 21 Jan 09:00:10 09:05:06 17° 284° (WNW) 09:10:03
Oscar 11 21 Jan 09:04:49 09:09:12 83° 286° (WNW) 09:13:33 145.826/435.025
CUBEBUG 2 21 Jan 09:24:12 09:27:09 18° 294° (WNW) 09:30:10 437.445
PRISM 21 Jan 09:28:10 09:31:05 18° 266° (W) 09:34:00 437.425
PCSat 21 Jan 09:36:23 09:41:50 83° 242° (WSW) 09:47:15 145.827
FUNcube-1 21 Jan 09:42:55 09:46:45 30° 290° (WNW) 09:50:39 145.935
QB50P1 21 Jan 09:48:25 09:51:30 20° 66° (ENE) 09:54:35 145.935-145.965
UWE-3 21 Jan 09:51:01 09:53:35 15° 295° (WNW) 09:56:09 435.000/436.395/437.385
POLYITAN 1 21 Jan 09:52:41 09:55:57 22° 67° (ENE) 09:59:12 437.675
QB50P2 21 Jan 09:53:46 09:57:11 25° 68° (ENE) 10:00:37 145.880/145.840
DELFI C3 21 Jan 10:05:14 10:09:05 47° 287° (WNW) 10:12:54 145.870
ZACube-1 21 Jan 10:07:27 10:10:13 17° 295° (WNW) 10:13:01 437.345
UNISAT 6 21 Jan 10:08:33 10:11:57 23° 265° (W) 10:15:23 437.425
HUMSAT D 21 Jan 10:08:39 10:12:57 86° 281° (W) 10:17:15 437.325/437.525
HO-68 21 Jan 10:11:17 10:14:04 13° 311° (NW) 10:16:51 435.675
POPSAT HIP 1 21 Jan 10:14:31 10:18:22 37° 71° (ENE) 10:22:14 437.405
BY70-1 21 Jan 10:20:15 10:22:59 24° 95° (E) 10:25:33 436.1900
TIGRISAT 21 Jan 10:22:10 10:25:05 18° 267° (W) 10:28:02 435.000
JAS-2 21 Jan 10:23:54 10:29:12 68° 259° (W) 10:35:03 435.910
DUCHIFAT 1 21 Jan 10:24:02 10:27:56 40° 72° (ENE) 10:31:51 145.980
RS-15 21 Jan 10:27:29 10:36:53 27° 259° (W) 10:46:02 29.354- 29.394
NANOSAT C BR1 21 Jan 10:29:55 10:33:59 52° 73° (ENE) 10:38:03 145.865
CUBEBUG 1 21 Jan 10:33:28 10:35:13 12° 90° (E) 10:36:56 437.445
ANTELSAT 21 Jan 10:39:21 10:40:47 11° 270° (W) 10:42:14 437.575/2403.000
AISAT 21 Jan 10:52:19 10:54:16 13° 91° (E) 10:56:13 437.250
BUGSAT 1 21 Jan 10:54:56 10:58:32 31° 70° (ENE) 11:02:07 437.445
Oscar 19 21 Jan 11:10:54 11:14:15 18° 61° (ENE) 11:17:36 437.125/150
ESTCUBE 1 21 Jan 11:16:45 11:21:17 65° 102° (ESE) 11:25:46 437.505/2401.250
Cosmos 2491 21 Jan 11:17:03 11:23:23 21° 63° (ENE) 11:29:41 435.465 / 435.565
QB50P1 21 Jan 11:23:12 11:27:02 34° 263° (W) 11:30:53 145.935-145.965
PCSat 21 Jan 11:23:25 11:24:19 10° 259° (W) 11:25:14 145.827
VELOX 1 21 Jan 11:24:10 11:27:55 27° 96° (E) 11:31:38 145.980
POLYITAN 1 21 Jan 11:27:51 11:31:33 31° 263° (W) 11:35:17 437.675
QB50P2 21 Jan 11:29:16 11:32:52 28° 264° (W) 11:36:31 145.880/145.840
Gurwin Techsat 1B 21 Jan 11:33:30 11:36:33 16° 60° (ENE) 11:39:36 435.225
